Kingstree, SC

2:33 AM EDT on August 20, 2017 (GMT -0400)
Williamsburg County

Weather History for KCKI - October, 2012

Change the Weather History Date:

Wednesday, October 3, 2012

  Actual Average Record
Temperature  
Mean Temperature 80 °F -  
Max Temperature 84 °F 81 °F 86 °F (2014)
Min Temperature 77 °F 53 °F 37 °F (2011)
Cooling Degree Days 16    
Growing Degree Days 30 (Base 50)    
Moisture  
Dew Point 76 °F    
Average Humidity 91    
Maximum Humidity 100    
Minimum Humidity 70    
Precipitation  
Precipitation 0.00 in - - ()
Sea Level Pressure  
Sea Level Pressure 30.09 in    
Wind  
Wind Speed 3 mph (South)    
Max Wind Speed 6 mph    
Max Gust Speed -    
Visibility 8 miles    
Events Rain    
Averages and records for this station are not official NWS values.
T = Trace of Precipitation, MM = Missing Value Source: NWS Daily Summary

Daily Weather History Graph

Daily Weather History Graph

Search for Another Location

Airport or City:

Trip Planner

Search our weather history database for the weather conditions in past years. The results will help you decide how hot, cold, wet, or windy it might be!

Date:

Astronomy

Oct. 03, 2012 Rise Set
Actual Time 7:15 AM EDT 7:00 PM EDT
Civil Twilight 6:50 AM EDT 7:25 PM EDT
Nautical Twilight 6:21 AM EDT 7:54 PM EDT
Astronomical Twilight 5:52 AM EDT 8:23 PM EDT
Moon 9:03 PM EDT (10/3) 10:26 AM EDT (10/3)
Length of Visible Light 12h 34m
Length of Day
11h 44m
Waning Gibbous, 89% of the Moon is Illuminated
Oct 3
Waning Gibbous
Oct 8
Last Quarter
Oct 15
New
Oct 21
First Quarter
Oct 29
Full

Hourly Weather History & Observations

Time (EDT) Temp. Heat Index Dew Point Humidity Pressure Visibility Wind Dir Wind Speed Gust Speed Precip Events Conditions
12:15 AM 77.0 °F - 77.0 °F 100% 30.00 in 5.0 mi Calm Calm - N/A   Clear
12:35 AM 77.0 °F - 77.0 °F 100% 30.00 in 5.0 mi SE 4.6 mph - N/A   Clear
12:55 AM 77.0 °F - 77.0 °F 100% 30.00 in 5.0 mi SSE 3.5 mph - N/A   Clear
1:15 AM 77.0 °F - 77.0 °F 100% 30.00 in 7.0 mi SSE 3.5 mph - N/A   Clear
1:35 AM 77.0 °F - 77.0 °F 100% 30.00 in 7.0 mi South 3.5 mph - N/A   Clear
1:55 AM 77.0 °F - 77.0 °F 100% 30.00 in 7.0 mi SE 4.6 mph - N/A   Clear
2:15 AM 77.0 °F - 77.0 °F 100% 30.00 in 7.0 mi SE 3.5 mph - N/A   Clear
2:35 AM 77.0 °F - 77.0 °F 100% 30.00 in 7.0 mi SE 3.5 mph - N/A   Clear
2:55 AM 77.0 °F - 77.0 °F 100% 30.00 in 7.0 mi SE 4.6 mph - N/A   Clear
3:15 AM 77.0 °F - 77.0 °F 100% 30.00 in 7.0 mi SSE 4.6 mph - N/A   Clear
3:35 AM 77.0 °F - 77.0 °F 100% 30.01 in 7.0 mi SE 3.5 mph - N/A   Clear
3:55 AM 77.0 °F - 77.0 °F 100% 30.01 in 7.0 mi SSE 3.5 mph - N/A   Clear
4:15 AM 77.0 °F - 77.0 °F 100% 30.01 in 7.0 mi SE 3.5 mph - N/A   Clear
4:35 AM 77.0 °F - 77.0 °F 100% 30.01 in 7.0 mi SE 3.5 mph - N/A   Clear
4:55 AM 77.0 °F - 77.0 °F 100% 30.02 in 7.0 mi SE 3.5 mph - N/A   Clear
5:15 AM 77.0 °F - 77.0 °F 100% 30.02 in 7.0 mi Calm Calm - N/A   Clear
5:35 AM 77.0 °F - 77.0 °F 100% 30.03 in 7.0 mi ESE 3.5 mph - N/A   Clear
5:55 AM 77.0 °F - 77.0 °F 100% 30.04 in 7.0 mi Calm Calm - N/A Rain Light Rain
6:15 AM 77.0 °F - 77.0 °F 100% 30.04 in 7.0 mi Calm Calm - N/A   Clear
6:35 AM 77.0 °F - 77.0 °F 100% 30.05 in 7.0 mi Calm Calm - N/A   Clear
6:55 AM 77.0 °F - 77.0 °F 100% 30.06 in 5.0 mi Calm Calm - N/A   Clear
7:15 AM 77.0 °F - 77.0 °F 100% 30.06 in 4.0 mi Calm Calm - N/A   Clear
7:35 AM 77.0 °F - 77.0 °F 100% 30.06 in 5.0 mi Calm Calm - N/A   Clear
7:55 AM 77.0 °F - 77.0 °F 100% 30.07 in 4.0 mi Calm Calm - N/A   Clear
8:15 AM 77.0 °F - 77.0 °F 100% 30.07 in 4.0 mi Calm Calm - N/A   Clear
8:35 AM 77.0 °F - 77.0 °F 100% 30.08 in 4.0 mi Calm Calm - N/A   Clear
8:55 AM 77.0 °F - 77.0 °F 100% 30.09 in 5.0 mi SE 3.5 mph - N/A   Clear
9:15 AM 77.0 °F - 77.0 °F 100% 30.09 in 7.0 mi SSE 4.6 mph - N/A   Clear
9:55 AM 78.8 °F - 78.8 °F 100% 30.11 in 7.0 mi SSE 4.6 mph - N/A   Clear
10:15 AM 80.6 °F 87.1 °F 77.0 °F 89% 30.10 in 7.0 mi South 4.6 mph - N/A   Clear
10:35 AM 80.6 °F 87.1 °F 77.0 °F 89% 30.11 in 7.0 mi South 4.6 mph - N/A   Clear
10:55 AM 80.6 °F 86.2 °F 75.2 °F 84% 30.12 in 7.0 mi SSW 4.6 mph - N/A   Clear
11:15 AM 82.4 °F 88.2 °F 73.4 °F 74% 30.12 in 7.0 mi SSW 4.6 mph - N/A   Clear
11:35 AM 80.6 °F 85.4 °F 73.4 °F 79% 30.12 in 7.0 mi SSW 4.6 mph - N/A   Clear
11:55 AM 80.6 °F 85.4 °F 73.4 °F 79% 30.12 in 10.0 mi SSW 4.6 mph - N/A   Clear
12:15 PM 82.4 °F 88.2 °F 73.4 °F 74% 30.12 in 7.0 mi Calm Calm - N/A   Clear
12:35 PM 82.4 °F 88.2 °F 73.4 °F 74% 30.12 in 7.0 mi SW 5.8 mph - N/A   Clear
12:55 PM 82.4 °F 88.2 °F 73.4 °F 74% 30.12 in 7.0 mi SSW 4.6 mph - N/A   Clear
1:15 PM 82.4 °F 88.2 °F 73.4 °F 74% 30.11 in 10.0 mi SSW 3.5 mph - N/A   Clear
1:35 PM 82.4 °F 88.2 °F 73.4 °F 74% 30.11 in 10.0 mi SSW 5.8 mph - N/A   Clear
1:55 PM 84.2 °F 90.9 °F 73.4 °F 70% 30.11 in 10.0 mi South 4.6 mph - N/A   Clear
2:15 PM 84.2 °F 90.9 °F 73.4 °F 70% 30.10 in 7.0 mi SW 4.6 mph - N/A   Clear
2:35 PM 82.4 °F 88.2 °F 73.4 °F 74% 30.10 in 7.0 mi SW 5.8 mph - N/A   Clear
2:55 PM 84.2 °F 90.9 °F 73.4 °F 70% 30.10 in 10.0 mi SSW 5.8 mph - N/A   Clear
3:15 PM 84.2 °F 90.9 °F 73.4 °F 70% 30.09 in 7.0 mi SW 3.5 mph - N/A   Clear
3:35 PM 82.4 °F 88.2 °F 73.4 °F 74% 30.09 in 10.0 mi SW 3.5 mph - N/A   Clear
3:55 PM 82.4 °F 88.2 °F 73.4 °F 74% 30.10 in 10.0 mi South 3.5 mph - N/A   Clear
4:15 PM 82.4 °F 88.2 °F 73.4 °F 74% 30.10 in 7.0 mi SSW 5.8 mph - N/A   Clear
4:35 PM 82.4 °F 88.2 °F 73.4 °F 74% 30.10 in 10.0 mi SSW 4.6 mph - N/A   Clear
4:55 PM 82.4 °F 88.2 °F 73.4 °F 74% 30.11 in 10.0 mi SW 3.5 mph - N/A   Clear
5:15 PM 82.4 °F 89.5 °F 75.2 °F 79% 30.11 in 10.0 mi SSW 3.5 mph - N/A   Unknown
5:35 PM 80.6 °F 86.2 °F 75.2 °F 84% 30.11 in 10.0 mi Calm Calm - N/A   Unknown
6:15 PM 80.6 °F 87.1 °F 77.0 °F 89% 30.12 in 10.0 mi Calm Calm - N/A   Clear
6:35 PM 80.6 °F 86.2 °F 75.2 °F 84% 30.13 in 10.0 mi Calm Calm - N/A   Clear
6:55 PM 78.8 °F - 77.0 °F 94% 30.13 in 10.0 mi Calm Calm - N/A   Clear
7:15 PM 78.8 °F - 77.0 °F 94% 30.13 in 10.0 mi Calm Calm - N/A   Clear
7:35 PM 78.8 °F - 77.0 °F 94% 30.13 in 10.0 mi Calm Calm - N/A   Clear
7:55 PM 78.8 °F - 77.0 °F 94% 30.14 in 10.0 mi Calm Calm - N/A   Clear
8:15 PM 78.8 °F - 77.0 °F 94% 30.14 in 10.0 mi Calm Calm - N/A   Clear
8:35 PM 77.0 °F - 77.0 °F 100% 30.15 in 10.0 mi Calm Calm - N/A   Clear
8:55 PM 77.0 °F - 77.0 °F 100% 30.16 in 7.0 mi Calm Calm - N/A   Clear
9:15 PM 77.0 °F - 77.0 °F 100% 30.17 in 7.0 mi Calm Calm - N/A   Clear
9:35 PM 77.0 °F - 77.0 °F 100% 30.17 in 10.0 mi Calm Calm - N/A   Clear
9:55 PM 77.0 °F - 77.0 °F 100% 30.18 in 10.0 mi Calm Calm - N/A   Clear
10:15 PM 77.0 °F - 77.0 °F 100% 30.19 in 7.0 mi Calm Calm - N/A   Clear
10:35 PM 77.0 °F - 77.0 °F 100% 30.20 in 7.0 mi Calm Calm - N/A   Clear
11:15 PM 77.0 °F - 77.0 °F 100% 30.21 in 7.0 mi Calm Calm - N/A   Clear
11:35 PM 77.0 °F - 77.0 °F 100% 30.20 in 7.0 mi Calm Calm - N/A   Clear
11:55 PM 77.0 °F - 77.0 °F 100% 30.20 in 7.0 mi Calm Calm - N/A   Clear